Bel Air, Maryland - USA |
Today's Data File |
9/2/26
Time Wind Dir Wind Spd Wind Gust Hum In Humidity Temp In Temp Raw Barom Wind Chill Press Alt Cloud Base Dens Alt Temp Out R DailyRain 24HrRain RainRate
� mph mph % % �F �F in �F ft ft ft �F/hr in in in/hr
12:00am 48 2 6 44 96 71.6 75.7 29.45 75.7 440 304 1636 -1.00 0.00 0.00 0.000
12:01am 48 0 2 44 96 71.6 75.7 29.45 75.7 439 304 1635 -0.98 0.00 0.00 0.000
12:02am 48 0 2 44 96 71.6 75.7 29.45 75.7 439 304 1635 -0.97 0.00 0.00 0.000
12:03am 48 0 2 44 96 71.6 75.7 29.45 75.7 440 304 1636 -0.96 0.00 0.00 0.000
12:04am 76 4 4 44 96 71.6 75.7 29.45 75.7 440 304 1636 -0.94 0.00 0.00 0.000
12:05am 63 3 4 44 96 71.6 75.7 29.45 75.7 440 304 1636 -0.93 0.00 0.00 0.000
12:06am 81 3 5 44 96 71.6 75.6 29.45 75.6 439 304 1629 -1.01 0.00 0.00 0.000
12:07am 81 1 5 44 95 71.6 75.6 29.45 75.6 439 382 1629 -0.99 0.00 0.00 0.000
12:08am 80 0 5 44 95 71.6 75.6 29.45 75.6 435 382 1624 -0.98 0.00 0.00 0.000
12:09am 80 0 5 44 95 71.6 75.6 29.45 75.6 434 382 1623 -0.96 0.00 0.00 0.000
12:10am 80 0 5 44 95 71.6 75.5 29.46 75.5 432 382 1615 -1.04 0.00 0.00 0.000
12:11am 80 2 3 44 96 71.6 75.5 29.46 75.5 429 304 1611 -1.03 0.00 0.00 0.000
12:12am 80 0 3 44 96 71.6 75.5 29.46 75.5 428 304 1609 -1.01 0.00 0.00 0.000
12:13am 80 0 3 44 96 71.6 75.5 29.46 75.5 427 304 1608 -0.99 0.00 0.00 0.000
12:14am 80 1 3 44 96 71.6 75.5 29.46 75.5 426 304 1607 -0.98 0.00 0.00 0.000
12:15am 80 1 3 44 96 71.6 75.4 29.46 75.4 425 304 1599 -1.06 0.00 0.00 0.000
12:16am 80 1 2 44 96 71.6 75.4 29.46 75.4 425 304 1599 -1.04 0.00 0.00 0.000
12:17am 80 1 2 44 96 71.4 75.3 29.46 75.3 426 304 1594 -1.12 0.00 0.00 0.000
12:18am 80 2 3 44 95 71.4 75.3 29.46 75.3 426 382 1594 -1.10 0.00 0.00 0.000
12:19am 80 0 3 44 95 71.4 75.2 29.46 75.2 426 382 1588 -1.18 0.00 0.00 0.000
12:20am 80 0 3 44 95 71.4 75.1 29.46 75.1 427 381 1583 -1.26 0.00 0.00 0.000
12:21am 80 1 3 44 96 71.4 75.1 29.46 75.1 427 304 1583 -1.24 0.00 0.00 0.000
12:22am 80 1 3 44 95 71.4 75.0 29.46 75.0 427 381 1576 -1.32 0.00 0.00 0.000
12:23am 80 0 3 44 95 71.4 75.0 29.46 75.0 427 381 1576 -1.30 0.00 0.00 0.000
12:24am 80 1 3 44 95 71.4 74.9 29.46 74.9 427 381 1570 -1.37 0.00 0.00 0.000
12:25am 80 1 3 44 95 71.4 74.8 29.46 74.8 426 381 1563 -1.45 0.00 0.00 0.000
12:26am 80 1 2 44 95 71.4 74.8 29.46 74.8 425 381 1561 -1.43 0.00 0.00 0.000
12:27am 80 2 2 44 95 71.4 74.7 29.47 74.7 423 381 1553 -1.50 0.00 0.00 0.000
12:28am 310 1 3 44 95 71.4 74.6 29.47 74.6 421 381 1544 -1.58 0.00 0.00 0.000
12:29am 310 1 3 44 95 71.4 74.6 29.47 74.6 420 381 1543 -1.55 0.00 0.00 0.000
12:30am 310 1 3 44 95 71.4 74.5 29.47 74.5 420 381 1537 -1.62 0.00 0.00 0.000
12:31am 310 1 2 44 95 71.4 74.4 29.47 74.4 421 380 1532 -1.70 0.00 0.00 0.000
12:32am 310 1 2 44 95 71.4 74.5 29.47 74.5 421 381 1538 -1.57 0.00 0.00 0.000
12:33am 310 0 2 44 95 71.4 74.4 29.47 74.4 422 380 1533 -1.64 0.00 0.00 0.000
12:34am 310 0 2 44 95 71.4 74.4 29.47 74.4 422 380 1533 -1.62 0.00 0.00 0.000
12:35am 310 0 2 44 95 71.4 74.4 29.47 74.4 422 380 1533 -1.59 0.00 0.00 0.000
12:36am 342 1 1 44 95 71.4 74.3 29.47 74.3 421 380 1525 -1.66 0.00 0.00 0.000
12:37am 356 0 3 44 95 71.4 74.3 29.47 74.3 421 380 1525 -1.63 0.00 0.00 0.000
12:38am 356 1 3 44 95 71.6 74.3 29.47 74.3 420 380 1524 -1.61 0.00 0.00 0.000
12:39am 356 0 3 44 95 71.6 74.2 29.47 74.2 419 380 1517 -1.68 0.00 0.00 0.000
12:40am 356 0 3 44 95 71.6 74.2 29.47 74.2 418 380 1516 -1.65 0.00 0.00 0.000
12:41am 356 0 0 44 95 71.6 74.2 29.47 74.2 419 380 1517 -1.63 0.00 0.00 0.000
12:42am 356 0 1 44 95 71.6 74.2 29.47 74.2 422 380 1520 -1.60 0.00 0.00 0.000
12:43am 356 0 1 44 95 71.6 74.1 29.47 74.1 422 380 1514 -1.67 0.00 0.00 0.000
12:44am 356 0 2 44 95 71.6 74.1 29.47 74.1 422 380 1514 -1.64 0.00 0.00 0.000
12:45am 356 0 2 44 95 71.6 74.1 29.47 74.1 422 380 1514 -1.62 0.00 0.00 0.000
12:46am 356 0 0 44 95 71.6 74.1 29.46 74.1 424 380 1516 -1.59 0.00 0.00 0.000
12:47am 356 0 0 44 95 71.6 74.1 29.46 74.1 425 380 1517 -1.56 0.00 0.00 0.000
12:48am 356 0 0 44 95 71.6 74.0 29.46 74.0 425 380 1511 -1.64 0.00 0.00 0.000
12:49am 356 2 2 44 95 71.6 74.0 29.46 74.0 426 380 1512 -1.61 0.00 0.00 0.000
12:50am 356 0 2 45 95 71.6 74.0 29.46 74.0 425 380 1511 -1.58 0.00 0.00 0.000
12:51am 356 0 1 44 95 71.6 74.0 29.46 74.0 425 380 1511 -1.56 0.00 0.00 0.000
12:52am 356 0 1 44 95 71.6 74.0 29.46 74.0 424 380 1510 -1.53 0.01 0.01 0.000
12:53am 356 0 1 44 95 71.6 74.0 29.46 74.0 424 380 1510 -1.51 0.01 0.01 0.000
12:54am 356 0 1 44 95 71.6 73.9 29.46 73.9 425 380 1504 -1.58 0.01 0.01 0.000
12:55am 356 0 1 44 95 71.6 73.9 29.46 73.9 425 380 1504 -1.55 0.01 0.01 0.000
12:56am 356 0 0 44 95 71.6 73.9 29.46 73.9 424 380 1503 -1.53 0.01 0.01 0.000
12:57am 356 0 0 44 95 71.6 73.9 29.46 73.9 425 380 1504 -1.50 0.01 0.01 0.000
12:58am 356 0 0 44 95 71.6 73.8 29.46 73.8 425 379 1498 -1.58 0.01 0.01 0.000
12:59am 356 0 0 44 95 71.6 73.8 29.46 73.8 426 379 1499 -1.55 0.01 0.01 0.000
1:00am 356 0 0 44 96 71.6 73.8 29.46 73.8 426 302 1499 -1.53 0.01 0.01 0.000
1:01am 356 0 1 44 96 71.6 73.8 29.46 73.8 427 302 1500 -1.50 0.01 0.01 0.000
1:02am 356 1 1 44 96 71.6 73.7 29.46 73.7 428 302 1495 -1.58 0.01 0.01 0.000
1:03am 356 0 1 44 96 71.4 73.7 29.46 73.7 429 302 1497 -1.55 0.01 0.01 0.000
1:04am 356 0 1 44 96 71.4 73.7 29.46 73.7 429 302 1497 -1.53 0.01 0.01 0.000
1:05am 356 0 1 44 96 71.4 73.7 29.46 73.7 431 302 1500 -1.50 0.01 0.01 0.000
1:06am 356 0 0 44 96 71.4 73.7 29.45 73.7 434 302 1503 -1.48 0.01 0.01 0.000
1:07am 356 0 0 44 96 71.4 73.6 29.45 73.6 435 302 1498 -1.55 0.01 0.01 0.000
1:08am 356 0 0 44 96 71.4 73.6 29.45 73.6 436 302 1499 -1.52 0.01 0.01 0.000
1:09am 356 0 0 44 96 71.4 73.6 29.45 73.6 438 302 1501 -1.50 0.01 0.01 0.000
1:10am 356 1 1 44 96 71.4 73.6 29.45 73.6 439 302 1502 -1.47 0.01 0.01 0.000
1:11am 356 0 1 44 96 71.4 73.5 29.45 73.5 440 302 1497 -1.55 0.01 0.01 0.000
1:12am 356 0 1 44 96 71.4 73.5 29.45 73.5 441 302 1498 -1.52 0.01 0.01 0.000
1:13am 356 0 1 44 96 71.4 73.5 29.45 73.5 441 302 1498 -1.50 0.01 0.01 0.000
1:14am 356 0 1 44 96 71.4 73.5 29.45 73.5 441 302 1498 -1.47 0.01 0.01 0.000
1:15am 356 1 3 44 96 71.4 73.4 29.45 73.4 441 301 1493 -1.55 0.01 0.01 0.000
1:16am 356 0 2 44 96 71.6 73.4 29.44 73.4 443 301 1495 -1.52 0.01 0.01 0.000
1:17am 356 0 2 44 96 71.6 73.3 29.44 73.3 445 301 1491 -1.59 0.01 0.01 0.000
1:18am 356 0 2 44 96 71.6 73.4 29.44 73.4 449 301 1502 -1.47 0.01 0.01 0.000
1:19am 356 0 2 44 96 71.6 73.3 29.44 73.3 451 301 1498 -1.54 0.01 0.01 0.000
1:20am 356 0 2 44 96 71.6 73.3 29.43 73.3 453 301 1500 -1.52 0.01 0.01 0.000
1:21am 356 0 0 44 96 71.6 73.3 29.43 73.3 453 301 1501 -1.49 0.01 0.01 0.000
1:22am 356 0 0 44 97 71.6 73.2 29.43 73.2 454 225 1496 -1.57 0.01 0.01 0.000
1:23am 356 1 2 44 97 71.6 73.2 29.43 73.2 454 225 1496 -1.54 0.01 0.01 0.000
1:24am 356 0 3 44 97 71.6 73.2 29.43 73.2 455 225 1497 -1.52 0.01 0.01 0.000
1:25am 356 1 3 44 97 71.6 73.1 29.43 73.1 455 224 1491 -1.59 0.01 0.01 0.000
1:26am 356 0 1 44 97 71.6 73.1 29.43 73.1 455 224 1491 -1.56 0.01 0.01 0.000
1:27am 356 0 1 44 97 71.6 73.0 29.43 73.0 457 224 1487 -1.64 0.01 0.01 0.000
1:28am 356 1 2 44 97 71.6 73.0 29.43 73.0 458 224 1488 -1.61 0.01 0.01 0.000
1:29am 356 1 2 44 97 71.6 73.1 29.43 73.1 460 224 1497 -1.48 0.01 0.01 0.000
1:30am 356 1 2 44 97 71.6 73.0 29.43 73.0 461 224 1491 -1.56 0.01 0.01 0.000
1:31am 356 0 1 44 97 71.6 72.9 29.43 72.9 460 224 1484 -1.63 0.01 0.01 0.000
1:32am 356 1 1 44 97 71.6 72.9 29.43 72.9 459 224 1483 -1.61 0.01 0.01 0.000
1:33am 356 1 1 44 97 71.6 72.9 29.43 72.9 459 224 1483 -1.58 0.01 0.01 0.000
1:34am 356 2 2 44 97 71.6 72.8 29.43 72.8 458 224 1475 -1.65 0.01 0.01 0.000
1:35am 356 0 2 44 97 71.6 72.8 29.43 72.8 460 224 1478 -1.63 0.01 0.01 0.000
1:36am 356 0 1 44 97 71.6 72.8 29.43 72.8 460 224 1478 -1.60 0.01 0.01 0.000
1:37am 356 0 1 44 97 71.6 72.8 29.43 72.8 460 224 1478 -1.57 0.01 0.01 0.000
1:38am 356 0 1 44 97 71.6 72.8 29.43 72.8 461 224 1479 -1.55 0.01 0.01 0.000
1:39am 356 0 1 44 97 71.6 72.8 29.43 72.8 458 224 1475 -1.52 0.01 0.01 0.000
1:40am 356 0 1 44 97 71.6 72.8 29.43 72.8 457 224 1474 -1.50 0.01 0.01 0.000
1:41am 356 1 1 44 97 71.6 72.7 29.43 72.7 456 224 1467 -1.57 0.01 0.01 0.000
1:42am 356 1 1 44 97 71.6 72.7 29.43 72.7 455 224 1466 -1.55 0.01 0.01 0.000
1:43am 356 1 1 44 97 71.6 72.7 29.43 72.7 455 224 1466 -1.52 0.01 0.01 0.000
1:44am 356 0 1 44 97 71.6 72.7 29.43 72.7 455 224 1466 -1.50 0.01 0.01 0.000
1:45am 356 0 1 44 97 71.6 72.7 29.43 72.7 455 224 1466 -1.47 0.01 0.01 0.000
1:46am 356 0 0 44 97 71.4 72.6 29.43 72.6 455 224 1459 -1.55 0.01 0.01 0.000
1:47am 356 1 1 44 97 71.4 72.6 29.43 72.6 455 224 1459 -1.52 0.01 0.01 0.000
1:48am 356 1 1 44 97 71.6 72.6 29.43 72.6 454 224 1458 -1.50 0.01 0.01 0.000
1:49am 356 1 1 44 97 71.6 72.7 29.43 72.7 454 224 1464 -1.37 0.01 0.01 0.000
1:50am 356 1 1 44 98 71.4 72.7 29.43 72.7 453 148 1463 -1.35 0.01 0.01 0.000
1:51am 356 0 1 44 98 71.4 72.6 29.43 72.6 453 148 1457 -1.43 0.01 0.01 0.000
1:52am 356 0 1 44 98 71.6 72.6 29.43 72.6 453 148 1456 -1.40 0.01 0.01 0.000
1:53am 356 0 1 44 98 71.6 72.6 29.43 72.6 453 148 1456 -1.38 0.01 0.01 0.000
1:54am 356 0 1 44 98 71.6 72.6 29.43 72.6 453 148 1456 -1.36 0.01 0.01 0.000
1:55am 356 0 1 44 98 71.6 72.6 29.43 72.6 452 148 1455 -1.34 0.01 0.01 0.000
1:56am 356 0 0 44 98 71.6 72.5 29.43 72.5 452 148 1448 -1.41 0.01 0.01 0.000
1:57am 356 1 1 44 98 71.6 72.5 29.44 72.5 451 148 1447 -1.39 0.01 0.01 0.000
1:58am 356 1 1 44 98 71.6 72.5 29.44 72.5 449 148 1445 -1.36 0.01 0.01 0.000
1:59am 356 0 1 44 98 71.6 72.5 29.44 72.5 447 148 1443 -1.34 0.01 0.01 0.000
2:00am 356 0 1 44 98 71.6 72.5 29.44 72.5 446 148 1442 -1.32 0.01 0.01 0.000
2:01am 356 0 0 44 98 71.6 72.5 29.44 72.5 446 148 1442 -1.30 0.01 0.01 0.000
2:02am 356 0 0 44 98 71.6 72.5 29.44 72.5 447 148 1443 -1.28 0.01 0.01 0.000
2:03am 356 0 0 44 98 71.6 72.5 29.44 72.5 448 148 1444 -1.26 0.01 0.01 0.000
2:04am 356 0 0 44 98 71.6 72.5 29.44 72.5 447 148 1443 -1.24 0.01 0.01 0.000
2:05am 356 0 0 44 98 71.6 72.5 29.44 72.5 448 148 1444 -1.21 0.01 0.01 0.000
2:06am 356 0 0 44 98 71.6 72.5 29.44 72.5 449 148 1445 -1.19 0.01 0.01 0.000
2:07am 356 0 0 44 98 71.6 72.4 29.44 72.4 450 148 1440 -1.27 0.01 0.01 0.000
2:08am 356 0 0 44 98 71.6 72.5 29.44 72.5 451 148 1447 -1.16 0.01 0.01 0.000
2:09am 356 0 0 44 98 71.8 72.5 29.44 72.5 450 148 1446 -1.14 0.01 0.01 0.000
2:10am 356 0 0 44 98 71.8 72.4 29.44 72.4 449 148 1439 -1.22 0.01 0.01 0.000
2:11am 356 1 1 44 98 71.8 72.4 29.44 72.4 449 148 1439 -1.20 0.01 0.01 0.000
2:12am 356 0 1 44 98 71.8 72.4 29.44 72.4 449 148 1439 -1.18 0.01 0.01 0.000
2:13am 356 2 2 44 98 71.8 72.4 29.44 72.4 449 148 1439 -1.16 0.01 0.01 0.000
2:14am 356 1 2 44 98 71.8 72.4 29.44 72.4 451 148 1441 -1.14 0.01 0.01 0.000
2:15am 356 1 2 44 98 71.8 72.4 29.44 72.4 451 148 1441 -1.12 0.01 0.01 0.000
2:16am 356 1 2 44 98 71.8 72.4 29.44 72.4 451 148 1441 -1.10 0.01 0.01 0.000
2:17am 356 0 2 44 98 71.8 72.4 29.44 72.4 448 148 1437 -1.08 0.01 0.01 0.000
2:18am 356 1 2 44 98 71.8 72.4 29.44 72.4 446 148 1435 -1.07 0.01 0.01 0.000
2:19am 356 1 2 44 98 71.8 72.4 29.44 72.4 443 148 1432 -1.05 0.02 0.02 0.000
2:20am 356 1 2 44 98 71.8 72.4 29.45 72.4 441 148 1428 -1.03 0.02 0.02 0.000
2:21am 356 1 1 44 98 71.8 72.4 29.45 72.4 440 148 1427 -1.02 0.02 0.02 0.000
2:22am 356 0 1 44 98 71.8 72.3 29.45 72.3 440 148 1421 -1.10 0.02 0.02 0.000
2:23am 356 0 1 44 98 71.6 72.3 29.45 72.3 440 148 1421 -1.08 0.02 0.02 0.000
2:24am 356 0 1 44 98 71.6 72.3 29.45 72.3 441 148 1422 -1.06 0.02 0.02 0.000
2:25am 356 0 1 44 98 71.6 72.3 29.45 72.3 441 148 1423 -1.05 0.02 0.02 0.000
2:26am 356 0 1 44 98 71.6 72.3 29.45 72.3 441 148 1423 -1.03 0.02 0.02 0.000
2:27am 356 0 1 44 98 71.6 72.3 29.45 72.3 441 148 1423 -1.01 0.02 0.02 0.000
2:28am 356 0 1 44 98 71.6 72.3 29.45 72.3 441 148 1422 -0.99 0.02 0.02 0.000
2:29am 356 1 1 44 98 71.6 72.3 29.45 72.3 441 148 1422 -0.98 0.02 0.02 0.000
2:30am 356 1 1 44 98 71.6 72.3 29.45 72.3 440 148 1421 -0.96 0.02 0.02 0.000
2:31am 356 1 1 44 98 71.6 72.2 29.45 72.2 440 148 1415 -1.05 0.02 0.02 0.000
2:32am 356 0 1 44 98 71.6 72.2 29.45 72.2 439 148 1413 -1.03 0.02 0.02 0.000
2:33am 356 1 1 44 98 71.6 72.2 29.45 72.2 438 148 1412 -1.01 0.02 0.02 0.000
2:34am 356 1 1 44 98 71.6 72.1 29.45 72.1 438 148 1406 -1.09 0.02 0.02 0.000
2:35am 356 1 1 44 98 71.6 72.1 29.45 72.1 438 148 1406 -1.08 0.02 0.02 0.000
2:36am 356 1 1 44 98 71.6 72.1 29.45 72.1 438 148 1406 -1.06 0.02 0.02 0.000
2:37am 356 0 1 44 98 71.6 72.0 29.45 72.0 437 148 1398 -1.14 0.02 0.02 0.000
2:38am 356 0 1 44 98 71.6 72.0 29.45 72.0 437 148 1398 -1.12 0.02 0.02 0.000
2:39am 356 0 1 44 98 71.6 72.0 29.45 72.0 437 148 1398 -1.10 0.02 0.02 0.000
2:40am 356 1 1 44 98 71.6 72.0 29.45 72.0 438 148 1400 -1.08 0.02 0.02 0.000
2:41am 356 0 1 44 98 71.8 71.9 29.45 71.9 438 148 1393 -1.16 0.02 0.02 0.000
2:42am 356 0 1 44 98 71.8 71.9 29.45 71.9 438 148 1393 -1.15 0.02 0.02 0.000
2:43am 356 0 1 44 99 71.8 71.9 29.45 71.9 437 73 1392 -1.13 0.02 0.02 0.000
2:44am 356 0 1 44 99 71.8 71.9 29.45 71.9 435 73 1390 -1.11 0.02 0.02 0.000
2:45am 356 0 1 44 99 71.8 71.9 29.45 71.9 433 73 1388 -1.09 0.02 0.02 0.000
2:46am 356 0 0 44 98 71.8 71.8 29.46 71.8 430 148 1378 -1.17 0.02 0.02 0.000
2:47am 356 0 0 44 98 71.8 71.8 29.46 71.8 429 148 1377 -1.15 0.02 0.02 0.000
2:48am 356 0 0 44 98 71.8 71.8 29.46 71.8 429 148 1376 -1.13 0.02 0.02 0.000
2:49am 356 0 0 44 99 71.8 71.7 29.46 71.7 428 73 1368 -1.21 0.02 0.02 0.000
2:50am 356 0 1 44 98 71.8 71.7 29.46 71.7 427 148 1367 -1.19 0.02 0.02 0.000
2:51am 356 0 0 44 98 71.8 71.7 29.46 71.7 428 148 1368 -1.17 0.02 0.02 0.000
2:52am 356 0 0 44 98 71.8 71.7 29.46 71.7 428 148 1368 -1.15 0.02 0.02 0.000
2:53am 356 0 0 44 98 71.8 71.7 29.46 71.7 427 148 1367 -1.13 0.02 0.02 0.000
2:54am 356 0 0 44 98 71.8 71.7 29.46 71.7 427 148 1367 -1.12 0.02 0.02 0.000
2:55am 356 0 0 44 98 71.9 71.6 29.46 71.6 426 148 1359 -1.20 0.02 0.02 0.000
2:56am 356 0 0 44 99 71.9 71.6 29.46 71.6 425 73 1358 -1.18 0.02 0.02 0.000
2:57am 356 1 1 44 98 71.9 71.6 29.46 71.6 426 148 1359 -1.16 0.02 0.02 0.000
2:58am 356 0 1 44 98 71.9 71.6 29.46 71.6 426 148 1359 -1.14 0.02 0.02 0.000
2:59am 356 0 1 44 99 71.9 71.5 29.46 71.5 425 73 1352 -1.22 0.02 0.02 0.000
3:00am 356 0 1 44 99 71.8 71.5 29.46 71.5 426 73 1353 -1.20 0.02 0.02 0.000
3:01am 356 0 0 44 99 71.9 71.5 29.46 71.5 426 73 1353 -1.18 0.02 0.02 0.000
3:02am 356 0 0 44 99 71.8 71.5 29.46 71.5 426 73 1353 -1.16 0.02 0.02 0.000
3:03am 356 0 0 44 99 71.8 71.5 29.46 71.5 426 73 1353 -1.14 0.02 0.02 0.000
3:04am 356 0 0 44 99 71.8 71.5 29.46 71.5 427 73 1354 -1.12 0.02 0.02 0.000
3:05am 356 0 0 44 99 71.8 71.4 29.46 71.4 426 73 1347 -1.20 0.02 0.02 0.000
3:06am 356 0 0 44 99 71.8 71.5 29.46 71.5 425 73 1352 -1.08 0.02 0.02 0.000
3:07am 356 0 0 44 99 71.8 71.5 29.46 71.5 425 73 1352 -1.06 0.02 0.02 0.000
3:08am 356 0 1 44 99 71.8 71.4 29.46 71.4 425 73 1346 -1.14 0.02 0.02 0.000
3:09am 356 0 1 44 99 71.8 71.4 29.46 71.4 426 73 1347 -1.13 0.02 0.02 0.000
3:10am 356 0 1 44 99 71.8 71.4 29.46 71.4 426 73 1347 -1.11 0.02 0.02 0.000
3:11am 356 0 0 44 99 71.8 71.4 29.46 71.4 426 73 1347 -1.09 0.02 0.02 0.000
3:12am 356 0 0 44 99 71.8 71.4 29.46 71.4 426 73 1347 -1.07 0.02 0.02 0.000
3:13am 356 0 0 44 99 71.8 71.4 29.46 71.4 426 73 1347 -1.05 0.02 0.02 0.000
3:14am 356 0 0 44 99 71.8 71.4 29.46 71.4 426 73 1347 -1.04 0.02 0.02 0.000
3:15am 356 0 0 44 99 71.8 71.3 29.46 71.3 426 73 1340 -1.12 0.02 0.02 0.000
3:16am 356 0 0 44 99 71.8 71.3 29.46 71.3 426 73 1340 -1.10 0.02 0.02 0.000
3:17am 356 0 0 44 99 71.8 71.3 29.46 71.3 426 73 1340 -1.08 0.02 0.02 0.000
3:18am 356 0 0 44 99 71.8 71.3 29.46 71.3 426 73 1340 -1.06 0.02 0.02 0.000
3:19am 356 0 0 45 99 71.8 71.3 29.46 71.3 426 73 1340 -1.05 0.02 0.02 0.000
3:20am 356 0 1 44 99 71.8 71.3 29.46 71.3 425 73 1339 -1.03 0.02 0.02 0.000
3:21am 356 1 1 44 99 71.8 71.3 29.46 71.3 425 73 1339 -1.01 0.02 0.02 0.000
3:22am 356 2 2 44 99 71.8 71.3 29.46 71.3 424 73 1338 -1.00 0.02 0.02 0.000
3:23am 356 1 2 44 99 71.8 71.3 29.46 71.3 424 73 1338 -0.98 0.02 0.02 0.000
3:24am 356 1 2 44 99 71.8 71.3 29.46 71.3 424 73 1338 -0.96 0.02 0.02 0.000
3:25am 356 0 2 44 99 71.8 71.3 29.46 71.3 424 73 1338 -0.95 0.02 0.02 0.000
3:26am 356 1 1 44 99 71.8 71.3 29.46 71.3 424 73 1338 -0.93 0.02 0.02 0.000
3:27am 356 0 1 44 99 71.9 71.3 29.46 71.3 425 73 1339 -0.92 0.02 0.02 0.000
3:28am 356 0 1 44 99 71.9 71.3 29.46 71.3 425 73 1339 -0.90 0.02 0.02 0.000
3:29am 356 0 1 44 99 71.9 71.2 29.46 71.2 425 73 1333 -0.98 0.02 0.02 0.000
3:30am 356 0 1 44 99 71.9 71.2 29.46 71.2 424 73 1332 -0.97 0.02 0.02 0.000
3:31am 356 0 0 44 99 71.9 71.2 29.47 71.2 423 73 1331 -0.95 0.02 0.02 0.000
3:32am 356 0 0 44 99 71.9 71.2 29.47 71.2 423 73 1331 -0.94 0.02 0.02 0.000
3:33am 356 1 1 44 99 71.9 71.2 29.47 71.2 423 73 1331 -0.92 0.02 0.02 0.000
3:34am 356 0 1 44 99 71.9 71.1 29.47 71.1 422 73 1323 -1.00 0.02 0.02 0.000
3:35am 356 0 1 44 99 71.9 71.1 29.47 71.1 423 73 1324 -0.99 0.02 0.02 0.000
3:36am 356 0 0 44 99 71.9 71.1 29.47 71.1 423 73 1324 -0.97 0.02 0.02 0.000
3:37am 356 0 0 44 99 71.9 71.0 29.47 71.0 423 73 1318 -1.05 0.02 0.02 0.000
3:38am 356 0 0 44 99 71.9 71.0 29.47 71.0 422 73 1317 -1.04 0.02 0.02 0.000
3:39am 356 0 0 44 99 71.9 71.0 29.47 71.0 422 73 1317 -1.02 0.02 0.02 0.000
3:40am 356 0 0 44 99 71.9 71.0 29.47 71.0 421 73 1316 -1.00 0.02 0.02 0.000
3:41am 356 0 0 44 99 71.9 70.9 29.47 70.9 421 73 1309 -1.08 0.02 0.02 0.000
3:42am 356 0 0 44 99 71.9 70.9 29.47 70.9 421 73 1309 -1.07 0.02 0.02 0.000
3:43am 356 0 0 44 99 71.9 70.9 29.47 70.9 422 73 1310 -1.05 0.02 0.02 0.000
3:44am 356 0 0 44 99 71.9 70.8 29.47 70.8 423 73 1305 -1.13 0.02 0.02 0.000
3:45am 356 0 0 44 99 71.9 70.8 29.47 70.8 423 73 1305 -1.11 0.02 0.02 0.000
3:46am 356 0 0 44 99 71.9 70.8 29.47 70.8 423 73 1305 -1.09 0.02 0.02 0.000
3:47am 356 0 0 44 99 71.9 70.8 29.47 70.8 422 73 1304 -1.08 0.02 0.02 0.000
3:48am 356 0 0 44 99 71.9 70.8 29.47 70.8 422 73 1304 -1.06 0.02 0.02 0.000
3:49am 356 0 0 44 99 71.9 70.8 29.47 70.8 422 73 1304 -1.04 0.02 0.02 0.000
3:50am 356 0 0 44 99 71.9 70.7 29.47 70.7 421 73 1296 -1.12 0.02 0.02 0.000
3:51am 356 0 0 44 99 71.9 70.7 29.47 70.7 421 73 1296 -1.11 0.02 0.02 0.000
3:52am 356 0 0 44 99 71.9 70.7 29.47 70.7 421 73 1296 -1.09 0.02 0.02 0.000
3:53am 356 0 0 44 99 71.9 70.7 29.47 70.7 421 73 1296 -1.07 0.02 0.02 0.000
3:54am 356 0 0 44 99 71.9 70.7 29.47 70.7 421 73 1296 -1.05 0.02 0.02 0.000
3:55am 356 0 0 44 99 71.9 70.7 29.47 70.7 421 73 1296 -1.03 0.02 0.02 0.000
3:56am 356 0 0 44 99 71.9 70.7 29.47 70.7 421 73 1296 -1.02 0.02 0.02 0.000
3:57am 356 0 0 44 99 71.9 70.7 29.47 70.7 420 73 1295 -1.00 0.02 0.02 0.000
3:58am 356 0 0 44 99 71.9 70.8 29.47 70.8 421 73 1303 -0.88 0.02 0.02 0.000
3:59am 356 0 0 44 99 71.9 70.8 29.47 70.8 421 73 1303 -0.87 0.02 0.02 0.000
4:00am 356 0 0 44 99 71.9 70.8 29.47 70.8 421 73 1303 -0.86 0.02 0.02 0.000
4:01am 356 0 0 44 99 71.9 70.8 29.47 70.8 422 73 1304 -0.84 0.02 0.02 0.000
4:02am 356 0 0 44 100 71.9 70.9 29.47 70.9 423 0 1311 -0.73 0.02 0.02 0.000
4:03am 356 0 0 44 99 71.9 71.0 29.47 71.0 423 73 1318 -0.62 0.02 0.02 0.000
4:04am 356 0 0 44 99 71.9 71.0 29.47 71.0 423 73 1318 -0.61 0.02 0.02 0.000
4:05am 356 0 0 44 99 71.9 70.9 29.47 70.9 422 73 1310 -0.70 0.02 0.02 0.000
4:06am 356 0 0 44 99 71.9 70.9 29.47 70.9 421 73 1309 -0.69 0.02 0.02 0.000
4:07am 356 0 0 44 99 71.9 71.0 29.47 71.0 420 73 1314 -0.57 0.02 0.02 0.000
4:08am 356 0 0 44 99 71.9 70.9 29.47 70.9 421 73 1309 -0.66 0.02 0.02 0.000
4:09am 356 0 0 44 99 71.9 71.0 29.47 71.0 422 73 1317 -0.55 0.02 0.02 0.000
4:10am 356 0 0 44 99 71.9 70.9 29.47 70.9 422 73 1310 -0.64 0.02 0.02 0.000
4:11am 356 0 0 44 99 72.1 70.8 29.47 70.8 422 73 1304 -0.73 0.02 0.02 0.000
4:12am 356 0 0 44 99 72.1 70.9 29.47 70.9 422 73 1310 -0.62 0.02 0.02 0.000
4:13am 356 0 0 44 99 72.1 70.9 29.47 70.9 421 73 1309 -0.61 0.02 0.02 0.000
4:14am 356 0 0 44 99 72.1 70.8 29.47 70.8 420 73 1302 -0.70 0.02 0.02 0.000
4:15am 356 0 0 44 99 72.1 70.8 29.47 70.8 418 73 1299 -0.69 0.02 0.02 0.000
4:16am 356 0 0 44 99 72.1 70.8 29.47 70.8 418 73 1299 -0.67 0.02 0.02 0.000
4:17am 356 0 0 44 99 72.1 70.8 29.47 70.8 418 73 1298 -0.66 0.02 0.02 0.000
4:18am 356 0 0 44 99 72.1 70.8 29.47 70.8 418 73 1298 -0.65 0.02 0.02 0.000
4:19am 356 0 0 44 99 72.1 70.8 29.47 70.8 418 73 1298 -0.64 0.02 0.02 0.000
4:20am 356 0 0 44 99 72.1 70.7 29.47 70.7 417 73 1291 -0.73 0.02 0.02 0.000
4:21am 356 0 0 44 99 72.1 70.7 29.47 70.7 417 73 1291 -0.72 0.02 0.02 0.000
4:22am 356 0 0 44 99 72.1 70.7 29.47 70.7 418 73 1292 -0.71 0.02 0.02 0.000
4:23am 356 0 0 44 99 72.1 70.7 29.47 70.7 416 73 1290 -0.70 0.02 0.02 0.000
4:24am 356 0 0 44 99 72.1 70.7 29.47 70.7 417 73 1291 -0.68 0.02 0.02 0.000
4:25am 356 0 0 44 99 72.1 70.7 29.47 70.7 416 73 1290 -0.67 0.02 0.02 0.000
4:26am 356 0 0 44 99 72.1 70.7 29.47 70.7 415 73 1289 -0.66 0.02 0.02 0.000
4:27am 356 0 0 44 99 72.1 70.6 29.48 70.6 414 73 1281 -0.75 0.02 0.02 0.000
4:28am 356 0 0 44 99 72.1 70.7 29.48 70.7 414 73 1287 -0.64 0.02 0.02 0.000
4:29am 356 0 0 44 99 72.1 70.7 29.48 70.7 414 73 1287 -0.63 0.02 0.02 0.000
4:30am 356 0 0 44 99 72.1 70.6 29.48 70.6 413 73 1280 -0.72 0.02 0.02 0.000
4:31am 356 0 0 44 99 72.1 70.6 29.48 70.6 414 73 1281 -0.71 0.02 0.02 0.000
4:32am 356 0 0 44 99 72.1 70.6 29.47 70.6 415 73 1282 -0.70 0.02 0.02 0.000
4:33am 356 0 0 44 99 72.1 70.6 29.48 70.6 414 73 1281 -0.68 0.02 0.02 0.000
4:34am 356 0 0 44 99 72.1 70.6 29.48 70.6 414 73 1281 -0.67 0.02 0.02 0.000
4:35am 356 0 0 44 99 71.9 70.7 29.48 70.7 414 73 1287 -0.56 0.02 0.02 0.000
4:36am 356 0 0 44 99 71.9 70.6 29.48 70.6 414 73 1281 -0.65 0.02 0.02 0.000
4:37am 356 0 0 44 99 71.9 70.6 29.47 70.6 416 73 1283 -0.64 0.02 0.02 0.000
4:38am 356 0 0 44 99 71.9 70.6 29.47 70.6 416 73 1283 -0.63 0.02 0.02 0.000
4:39am 356 0 0 44 100 71.9 70.6 29.47 70.6 418 0 1286 -0.62 0.02 0.02 0.000
4:40am 356 0 0 44 100 71.9 70.6 29.47 70.6 418 0 1286 -0.61 0.02 0.02 0.000
4:41am 356 0 0 44 100 71.9 70.6 29.47 70.6 419 0 1288 -0.60 0.02 0.02 0.000
4:42am 356 0 0 44 100 71.9 70.6 29.47 70.6 418 0 1287 -0.59 0.02 0.02 0.000
4:43am 356 0 0 44 100 71.9 70.7 29.47 70.7 419 0 1294 -0.48 0.02 0.02 0.000
4:44am 356 0 0 44 100 71.9 70.7 29.47 70.7 419 0 1294 -0.47 0.02 0.02 0.000
4:45am 356 0 0 44 100 71.9 70.6 29.47 70.6 418 0 1287 -0.57 0.02 0.02 0.000
4:46am 356 0 0 44 100 72.1 70.6 29.47 70.6 418 0 1287 -0.56 0.02 0.02 0.000
4:47am 356 0 0 44 100 72.1 70.6 29.47 70.6 418 0 1287 -0.55 0.02 0.02 0.000
4:48am 356 0 0 44 100 72.1 70.6 29.47 70.6 418 0 1287 -0.54 0.02 0.02 0.000
4:49am 356 0 0 44 100 72.1 70.6 29.47 70.6 418 0 1287 -0.53 0.02 0.02 0.000
4:50am 356 0 0 44 100 72.1 70.6 29.47 70.6 417 0 1284 -0.52 0.02 0.02 0.000
4:51am 356 0 0 44 100 72.1 70.6 29.47 70.6 418 0 1286 -0.51 0.02 0.02 0.000
4:52am 356 0 0 44 100 72.1 70.5 29.47 70.5 417 0 1278 -0.60 0.02 0.02 0.000
4:53am 356 0 0 44 100 72.1 70.6 29.47 70.6 418 0 1286 -0.49 0.02 0.02 0.000
4:54am 356 0 0 44 99 72.1 70.5 29.47 70.5 418 73 1279 -0.58 0.02 0.02 0.000
4:55am 356 0 0 44 99 72.1 70.5 29.47 70.5 418 73 1279 -0.58 0.02 0.02 0.000
4:56am 356 0 0 44 100 72.1 70.6 29.47 70.6 418 0 1286 -0.47 0.02 0.02 0.000
4:57am 356 0 0 44 99 72.1 70.5 29.47 70.5 418 73 1280 -0.56 0.02 0.02 0.000
4:58am 356 0 0 44 99 72.1 70.5 29.47 70.5 419 73 1281 -0.55 0.02 0.02 0.000
4:59am 356 0 0 44 99 72.1 70.5 29.47 70.5 419 73 1281 -0.54 0.02 0.02 0.000
5:00am 356 0 0 44 99 72.1 70.5 29.47 70.5 419 73 1281 -0.53 0.02 0.02 0.000
5:01am 356 0 0 44 99 72.3 70.5 29.47 70.5 419 73 1281 -0.52 0.02 0.02 0.000
5:02am 356 0 0 44 99 72.3 70.5 29.47 70.5 418 73 1280 -0.51 0.02 0.02 0.000
5:03am 356 0 0 44 99 72.3 70.5 29.47 70.5 419 73 1281 -0.50 0.02 0.02 0.000
5:04am 356 0 0 44 99 72.3 70.5 29.47 70.5 418 73 1280 -0.50 0.02 0.02 0.000
5:05am 356 0 0 44 99 72.3 70.4 29.47 70.4 418 73 1274 -0.59 0.02 0.02 0.000
5:06am 356 0 0 44 99 72.3 70.4 29.47 70.4 418 73 1274 -0.58 0.02 0.02 0.000
5:07am 356 0 0 44 99 72.3 70.4 29.47 70.4 420 73 1276 -0.57 0.02 0.02 0.000
5:08am 356 0 0 44 99 72.3 70.4 29.47 70.4 420 73 1276 -0.56 0.02 0.02 0.000
5:09am 356 0 0 44 99 72.3 70.4 29.47 70.4 420 73 1276 -0.55 0.02 0.02 0.000
5:10am 356 0 0 44 99 72.3 70.4 29.47 70.4 420 73 1276 -0.54 0.02 0.02 0.000
5:11am 356 0 0 44 99 72.3 70.5 29.47 70.5 419 73 1281 -0.43 0.02 0.02 0.000
5:12am 356 0 0 44 100 72.3 70.4 29.47 70.4 418 0 1274 -0.52 0.02 0.02 0.000
5:13am 356 0 0 44 100 72.3 70.4 29.47 70.4 418 0 1273 -0.51 0.02 0.02 0.000
5:14am 356 0 0 44 100 72.3 70.4 29.47 70.4 418 0 1274 -0.50 0.02 0.02 0.000
5:15am 356 0 0 44 100 72.3 70.4 29.47 70.4 419 0 1275 -0.50 0.02 0.02 0.000
5:16am 356 0 0 44 100 72.3 70.4 29.47 70.4 419 0 1275 -0.49 0.02 0.02 0.000
5:17am 356 0 0 44 100 72.3 70.4 29.47 70.4 418 0 1274 -0.48 0.02 0.02 0.000
5:18am 356 0 0 44 100 72.3 70.4 29.47 70.4 418 0 1274 -0.47 0.02 0.02 0.000
5:19am 356 0 0 44 100 72.3 70.4 29.47 70.4 418 0 1274 -0.46 0.02 0.02 0.000
5:20am 356 0 0 44 100 72.3 70.4 29.47 70.4 418 0 1273 -0.46 0.02 0.02 0.000
5:21am 356 0 0 44 100 72.3 70.4 29.47 70.4 418 0 1273 -0.45 0.02 0.02 0.000
5:22am 356 0 0 44 100 72.3 70.4 29.47 70.4 418 0 1273 -0.44 0.02 0.02 0.000
5:23am 356 0 0 44 100 72.3 70.4 29.47 70.4 417 0 1272 -0.43 0.02 0.02 0.000
5:24am 356 0 0 44 100 72.3 70.4 29.47 70.4 417 0 1272 -0.43 0.02 0.02 0.000
5:25am 356 0 0 44 100 72.3 70.4 29.47 70.4 416 0 1270 -0.42 0.02 0.02 0.000
5:26am 356 0 0 44 100 72.3 70.4 29.47 70.4 415 0 1269 -0.41 0.02 0.02 0.000
5:27am 356 0 0 44 100 72.3 70.4 29.47 70.4 415 0 1269 -0.41 0.02 0.02 0.000
5:28am 356 0 0 44 100 72.3 70.4 29.47 70.4 416 0 1270 -0.40 0.02 0.02 0.000
5:29am 356 0 0 44 100 72.3 70.4 29.47 70.4 416 0 1270 -0.39 0.02 0.02 0.000
5:30am 356 0 0 44 100 72.3 70.3 29.47 70.3 416 0 1264 -0.49 0.02 0.02 0.000
5:31am 356 0 0 44 100 72.3 70.3 29.47 70.3 417 0 1265 -0.48 0.02 0.02 0.000
5:32am 356 0 0 44 100 72.3 70.4 29.47 70.4 417 0 1272 -0.37 0.02 0.02 0.000
5:33am 356 0 0 44 100 72.3 70.3 29.47 70.3 416 0 1264 -0.46 0.02 0.02 0.000
5:34am 356 0 0 44 100 72.3 70.3 29.47 70.3 416 0 1264 -0.46 0.02 0.02 0.000
5:35am 356 0 0 44 100 72.3 70.3 29.47 70.3 416 0 1264 -0.45 0.02 0.02 0.000
5:36am 356 0 0 45 100 72.3 70.3 29.47 70.3 416 0 1264 -0.44 0.02 0.02 0.000
5:37am 356 0 0 44 100 72.3 70.3 29.47 70.3 416 0 1264 -0.43 0.02 0.02 0.000
5:38am 356 0 0 44 100 72.3 70.3 29.47 70.3 415 0 1263 -0.43 0.02 0.02 0.000
5:39am 356 0 0 44 100 72.3 70.3 29.47 70.3 415 0 1263 -0.42 0.02 0.02 0.000
5:40am 356 0 0 44 100 72.3 70.2 29.48 70.2 414 0 1255 -0.51 0.02 0.02 0.000
5:41am 356 0 0 44 100 72.3 70.3 29.48 70.3 413 0 1261 -0.41 0.02 0.02 0.000
5:42am 356 0 0 44 100 72.3 70.2 29.48 70.2 413 0 1254 -0.50 0.02 0.02 0.000
5:43am 356 0 0 44 100 72.3 70.3 29.48 70.3 413 0 1261 -0.39 0.02 0.02 0.000
5:44am 356 0 0 44 100 72.3 70.2 29.48 70.2 413 0 1254 -0.48 0.02 0.02 0.000
5:45am 356 0 0 44 100 72.3 70.2 29.48 70.2 413 0 1254 -0.47 0.02 0.02 0.000
5:46am 356 0 0 44 100 72.3 70.3 29.48 70.3 413 0 1261 -0.37 0.02 0.02 0.000
5:47am 356 0 0 44 100 72.3 70.2 29.48 70.2 413 0 1254 -0.46 0.02 0.02 0.000
5:48am 356 0 0 44 100 72.3 70.2 29.48 70.2 413 0 1254 -0.45 0.02 0.02 0.000
5:49am 356 0 0 44 100 72.3 70.2 29.48 70.2 411 0 1252 -0.44 0.02 0.02 0.000
5:50am 356 0 0 44 100 72.3 70.2 29.48 70.2 411 0 1252 -0.44 0.02 0.02 0.000
5:51am 356 0 0 44 100 72.4 70.2 29.48 70.2 411 0 1252 -0.43 0.02 0.02 0.000
5:52am 356 0 0 44 100 72.4 70.2 29.48 70.2 411 0 1252 -0.42 0.02 0.02 0.000
5:53am 356 0 0 44 100 72.4 70.1 29.48 70.1 411 0 1246 -0.51 0.02 0.02 0.000
5:54am 356 0 0 44 100 72.4 70.1 29.48 70.1 411 0 1246 -0.51 0.02 0.02 0.000
5:55am 356 0 0 44 100 72.4 70.1 29.48 70.1 411 0 1246 -0.50 0.02 0.02 0.000
5:56am 356 0 0 44 100 72.4 70.1 29.48 70.1 411 0 1246 -0.49 0.02 0.02 0.000
5:57am 356 0 0 44 100 72.4 70.1 29.48 70.1 411 0 1246 -0.48 0.02 0.02 0.000
5:58am 356 0 0 44 100 72.4 70.1 29.48 70.1 411 0 1246 -0.47 0.02 0.02 0.000
5:59am 356 0 0 44 100 72.4 70.1 29.48 70.1 411 0 1246 -0.46 0.02 0.02 0.000
6:00am 356 0 0 44 100 72.4 70.1 29.48 70.1 411 0 1246 -0.46 0.02 0.02 0.000
6:01am 356 0 0 44 100 72.4 70.0 29.48 70.0 411 0 1239 -0.55 0.02 0.02 0.000
6:02am 356 0 0 44 100 72.4 70.1 29.48 70.1 411 0 1246 -0.44 0.02 0.02 0.000
6:03am 356 0 0 44 100 72.4 70.0 29.48 70.0 411 0 1239 -0.53 0.02 0.02 0.000
6:04am 356 0 0 44 100 72.4 70.0 29.48 70.0 411 0 1239 -0.52 0.02 0.02 0.000
6:05am 356 0 0 44 100 72.4 70.1 29.48 70.1 411 0 1246 -0.41 0.02 0.02 0.000
6:06am 356 0 0 44 100 72.6 70.0 29.48 70.0 411 0 1239 -0.51 0.02 0.02 0.000
6:07am 356 0 0 44 100 72.6 70.0 29.48 70.0 411 0 1239 -0.50 0.02 0.02 0.000
6:08am 356 0 0 44 100 72.6 70.0 29.48 70.0 411 0 1239 -0.49 0.02 0.02 0.000
6:09am 356 0 0 44 100 72.8 70.0 29.48 70.0 411 0 1239 -0.48 0.02 0.02 0.000
6:10am 356 0 0 44 100 72.8 70.0 29.48 70.0 411 0 1239 -0.47 0.02 0.02 0.000
6:11am 356 0 0 44 100 73.0 70.1 29.48 70.1 411 0 1246 -0.37 0.02 0.02 0.000
6:12am 356 0 0 44 100 73.1 70.1 29.48 70.1 411 0 1246 -0.36 0.02 0.02 0.000
6:13am 356 0 0 44 100 73.0 70.1 29.48 70.1 411 0 1246 -0.35 0.02 0.02 0.000
6:14am 356 0 0 44 100 73.0 70.1 29.48 70.1 411 0 1246 -0.35 0.02 0.02 0.000
6:15am 356 0 0 44 100 72.8 70.1 29.48 70.1 411 0 1246 -0.34 0.02 0.02 0.000
6:16am 356 0 0 44 100 72.8 70.2 29.48 70.2 411 0 1252 -0.24 0.02 0.02 0.000
6:17am 356 0 0 44 100 72.8 70.1 29.48 70.1 411 0 1246 -0.33 0.02 0.02 0.000
6:18am 356 0 0 44 100 72.8 70.2 29.48 70.2 411 0 1252 -0.23 0.02 0.02 0.000
6:19am 356 0 0 44 100 72.8 70.1 29.48 70.1 411 0 1246 -0.33 0.02 0.02 0.000
6:20am 356 0 0 44 100 72.8 70.2 29.48 70.2 411 0 1252 -0.22 0.02 0.02 0.000
6:21am 356 0 0 44 100 72.8 70.2 29.48 70.2 411 0 1252 -0.22 0.02 0.02 0.000
6:22am 356 0 0 44 100 72.8 70.2 29.48 70.2 411 0 1252 -0.21 0.02 0.02 0.000
6:23am 356 0 0 44 100 72.8 70.2 29.48 70.2 410 0 1251 -0.21 0.02 0.02 0.000
6:24am 356 0 0 44 100 72.8 70.1 29.48 70.1 410 0 1245 -0.30 0.02 0.02 0.000
6:25am 356 0 0 44 100 72.8 70.1 29.48 70.1 409 0 1243 -0.30 0.02 0.02 0.000
6:26am 356 0 0 44 100 72.8 70.1 29.48 70.1 409 0 1243 -0.29 0.02 0.02 0.000
6:27am 356 0 0 44 100 72.8 70.1 29.48 70.1 408 0 1242 -0.29 0.02 0.02 0.000
6:28am 356 0 0 44 100 72.8 70.1 29.48 70.1 406 0 1240 -0.28 0.02 0.02 0.000
6:29am 356 0 0 44 100 72.8 70.0 29.48 70.0 406 0 1234 -0.38 0.02 0.02 0.000
6:30am 356 0 0 44 100 72.8 70.0 29.49 70.0 405 0 1231 -0.37 0.02 0.02 0.000
6:31am 356 0 0 44 100 72.8 70.0 29.49 70.0 404 0 1230 -0.37 0.02 0.02 0.000
6:32am 356 0 0 44 100 72.8 70.0 29.49 70.0 405 0 1231 -0.36 0.02 0.02 0.000
6:33am 356 0 0 44 100 73.0 69.9 29.49 69.9 405 0 1225 -0.45 0.02 0.02 0.000
6:34am 356 0 0 44 100 72.8 69.9 29.49 69.9 404 0 1224 -0.45 0.02 0.02 0.000
6:35am 356 0 0 44 100 73.0 69.9 29.49 69.9 404 0 1224 -0.44 0.02 0.02 0.000
6:36am 356 0 0 44 100 73.0 70.0 29.49 70.0 403 0 1229 -0.33 0.02 0.02 0.000
6:37am 356 0 0 44 100 73.0 69.9 29.49 69.9 405 0 1225 -0.42 0.02 0.02 0.000
6:38am 356 0 0 44 100 73.0 70.0 29.49 70.0 405 0 1231 -0.32 0.02 0.02 0.000
6:39am 356 0 0 44 100 73.0 69.9 29.48 69.9 406 0 1226 -0.41 0.02 0.02 0.000
6:40am 356 0 0 44 100 73.0 69.9 29.48 69.9 406 0 1227 -0.40 0.02 0.02 0.000
6:41am 356 0 0 44 100 73.0 69.9 29.48 69.9 407 0 1228 -0.40 0.02 0.02 0.000
6:42am 356 0 0 44 100 73.0 69.9 29.48 69.9 407 0 1228 -0.39 0.02 0.02 0.000
6:43am 356 0 0 44 100 73.0 69.9 29.48 69.9 407 0 1228 -0.38 0.02 0.02 0.000
6:44am 356 0 0 44 100 73.0 69.9 29.48 69.9 406 0 1226 -0.38 0.02 0.02 0.000
6:45am 356 0 0 44 100 73.0 69.9 29.48 69.9 406 0 1226 -0.37 0.02 0.02 0.000
6:46am 356 0 0 44 100 73.0 69.9 29.48 69.9 406 0 1227 -0.37 0.02 0.02 0.000
6:47am 356 0 0 44 100 73.0 69.9 29.48 69.9 406 0 1226 -0.36 0.02 0.02 0.000
6:48am 356 0 0 44 100 73.0 69.9 29.48 69.9 406 0 1226 -0.35 0.02 0.02 0.000
6:49am 356 0 0 44 100 73.0 69.9 29.48 69.9 406 0 1227 -0.35 0.02 0.02 0.000
6:50am 356 0 0 44 100 73.0 69.9 29.48 69.9 407 0 1228 -0.34 0.02 0.02 0.000
6:51am 356 0 0 44 100 73.0 69.9 29.48 69.9 407 0 1228 -0.33 0.02 0.02 0.000
6:52am 356 0 0 44 100 73.1 69.8 29.48 69.8 409 0 1224 -0.43 0.02 0.02 0.000
6:53am 356 0 0 44 100 73.1 69.9 29.48 69.9 409 0 1231 -0.32 0.02 0.02 0.000
6:54am 356 0 0 44 100 73.1 69.9 29.48 69.9 410 0 1232 -0.31 0.02 0.02 0.000
6:55am 10 2 3 44 100 73.1 69.9 29.48 69.9 409 0 1231 -0.31 0.02 0.02 0.000
6:56am 10 1 3 44 100 73.1 69.9 29.48 69.9 409 0 1231 -0.30 0.02 0.02 0.000
6:57am 10 1 3 44 100 73.1 69.9 29.48 69.9 409 0 1231 -0.30 0.02 0.02 0.000
6:58am 10 0 3 44 100 73.1 70.0 29.48 70.0 408 0 1236 -0.19 0.02 0.02 0.000
6:59am 10 1 3 44 100 73.1 70.0 29.48 70.0 407 0 1235 -0.19 0.02 0.02 0.000
7:00am 10 2 3 44 100 73.1 69.9 29.48 69.9 406 0 1227 -0.29 0.02 0.02 0.000
7:01am 10 1 2 44 100 73.1 70.0 29.48 70.0 406 0 1234 -0.18 0.02 0.02 0.000
7:02am 10 0 2 44 100 73.1 70.0 29.48 70.0 406 0 1234 -0.18 0.02 0.02 0.000
7:03am 10 1 2 44 100 73.1 70.0 29.48 70.0 406 0 1234 -0.18 0.02 0.02 0.000
7:04am 10 0 2 44 100 73.1 70.0 29.48 70.0 407 0 1235 -0.17 0.02 0.02 0.000
7:05am 10 1 2 44 100 73.1 70.0 29.48 70.0 407 0 1235 -0.17 0.02 0.02 0.000
7:06am 10 1 2 44 100 73.1 70.0 29.48 70.0 406 0 1234 -0.17 0.02 0.02 0.000
7:07am 10 1 2 44 100 73.1 70.1 29.48 70.1 406 0 1240 -0.07 0.02 0.02 0.000
7:08am 10 1 2 45 100 73.3 70.1 29.48 70.1 406 0 1239 -0.07 0.02 0.02 0.000
7:09am 10 0 2 44 100 73.3 70.1 29.49 70.1 404 0 1237 -0.07 0.02 0.02 0.000
7:10am 10 2 2 44 100 73.3 70.1 29.49 70.1 404 0 1237 -0.06 0.02 0.02 0.000
7:11am 10 1 2 45 100 73.3 70.2 29.49 70.2 403 0 1242 0.03 0.02 0.02 0.000
7:12am 10 2 2 44 100 73.3 70.2 29.49 70.2 402 0 1241 0.03 0.02 0.02 0.000
|
Data provided from: Mark Hofmann's Bel Air, MD Weather Station |